TimeCDT,TemperatureF,Dew PointF,Humidity,Sea Level PressureIn,VisibilityMPH,Wind Direction,Wind SpeedMPH,Gust SpeedMPH,PrecipitationIn,Events,Conditions,WindDirDegrees,DateUTC
12:15 AM,62.6,61.7,97,29.85,10.0,East,4.6,-,0.03,Rain-Thunderstorm,Light Thunderstorms and Rain,90,2013-05-16 05:15:00
12:35 AM,62.6,61.7,97,29.86,10.0,ESE,11.5,17.3,0.05,Rain-Thunderstorm,Light Thunderstorms and Rain,110,2013-05-16 05:35:00
12:55 AM,62.1,61.7,99,29.83,10.0,East,16.1,23.0,0.05,Rain-Thunderstorm,Light Thunderstorms and Rain,100,2013-05-16 05:55:00
1:15 AM,62.1,61.2,97,29.81,10.0,SE,6.9,-,0.01,Rain,Light Rain,130,2013-05-16 06:15:00
1:35 AM,62.4,61.2,96,29.82,10.0,East,10.4,-,0.01,Thunderstorm,Scattered Clouds,100,2013-05-16 06:35:00
1:55 AM,62.6,61.3,96,29.81,10.0,East,11.5,-,0.01,,Clear,80,2013-05-16 06:55:00
2:15 AM,62.6,61.2,95,29.80,10.0,East,10.4,-,N/A,,Clear,100,2013-05-16 07:15:00
2:35 AM,62.6,61.2,95,29.78,10.0,SE,10.4,17.3,N/A,Thunderstorm,Clear,130,2013-05-16 07:35:00
2:55 AM,62.6,61.3,96,29.77,10.0,SE,9.2,-,N/A,,Clear,140,2013-05-16 07:55:00
3:15 AM,62.8,61.5,96,29.79,10.0,SSE,6.9,18.4,N/A,,Clear,160,2013-05-16 08:15:00
3:35 AM,62.6,61.5,96,29.79,10.0,South,13.8,20.7,N/A,,Clear,180,2013-05-16 08:35:00
3:55 AM,62.4,61.5,97,29.78,10.0,South,9.2,19.6,N/A,,Scattered Clouds,180,2013-05-16 08:55:00
4:15 AM,62.4,61.2,96,29.78,10.0,South,10.4,18.4,N/A,,Mostly Cloudy,180,2013-05-16 09:15:00
4:35 AM,62.4,61.2,96,29.78,10.0,SSE,8.1,-,N/A,,Overcast,160,2013-05-16 09:35:00
4:55 AM,62.2,61.3,97,29.79,10.0,SSE,6.9,-,N/A,,Overcast,160,2013-05-16 09:55:00
5:15 AM,62.2,61.5,97,29.79,10.0,SSE,9.2,-,N/A,,Overcast,160,2013-05-16 10:15:00
5:35 AM,62.6,61.7,97,29.79,10.0,South,6.9,-,N/A,,Overcast,170,2013-05-16 10:35:00
5:55 AM,62.6,61.7,97,29.80,10.0,South,9.2,17.3,N/A,,Overcast,190,2013-05-16 10:55:00
6:15 AM,62.6,61.3,96,29.81,10.0,SSW,15.0,19.6,N/A,,Mostly Cloudy,200,2013-05-16 11:15:00
6:35 AM,62.6,61.3,96,29.80,10.0,South,15.0,21.9,N/A,,Scattered Clouds,190,2013-05-16 11:35:00
6:55 AM,62.4,61.2,96,29.79,10.0,South,10.4,17.3,N/A,,Scattered Clouds,170,2013-05-16 11:55:00
7:15 AM,62.6,61.3,96,29.80,10.0,SSE,9.2,-,N/A,,Scattered Clouds,160,2013-05-16 12:15:00
7:35 AM,62.6,61.5,96,29.82,10.0,SSE,4.6,-,N/A,,Mostly Cloudy,160,2013-05-16 12:35:00
7:55 AM,63.0,61.7,96,29.82,10.0,SSE,9.2,-,N/A,,Mostly Cloudy,160,2013-05-16 12:55:00
8:15 AM,63.9,62.1,94,29.82,10.0,SSE,6.9,-,N/A,,Mostly Cloudy,160,2013-05-16 13:15:00
8:55 AM,65.3,63.0,92,29.81,10.0,SSE,10.4,-,N/A,,Overcast,160,2013-05-16 13:55:00
9:15 AM,66.0,63.1,90,29.81,10.0,SSE,10.4,-,N/A,,Overcast,160,2013-05-16 14:15:00
9:35 AM,66.9,63.5,89,29.81,10.0,SSE,10.4,-,N/A,,Overcast,160,2013-05-16 14:35:00
9:55 AM,67.5,63.9,88,29.82,10.0,South,8.1,-,N/A,,Overcast,180,2013-05-16 14:55:00
10:15 AM,67.5,63.9,88,29.83,10.0,South,10.4,16.1,N/A,Thunderstorm,Overcast,180,2013-05-16 15:15:00
10:35 AM,68.2,64.6,88,29.83,10.0,South,10.4,-,N/A,,Overcast,170,2013-05-16 15:35:00
10:55 AM,68.5,64.6,87,29.84,10.0,South,9.2,-,N/A,,Overcast,180,2013-05-16 15:55:00
11:15 AM,69.1,65.1,87,29.83,10.0,South,10.4,-,N/A,,Overcast,170,2013-05-16 16:15:00
11:35 AM,69.1,65.3,88,29.84,10.0,South,8.1,-,N/A,,Overcast,170,2013-05-16 16:35:00
11:55 AM,69.3,65.5,88,29.84,10.0,South,9.2,-,N/A,,Overcast,180,2013-05-16 16:55:00
12:15 PM,69.8,65.7,87,29.84,10.0,South,10.4,-,N/A,,Overcast,170,2013-05-16 17:15:00
12:35 PM,70.2,66.4,88,29.83,10.0,South,11.5,-,N/A,,Overcast,180,2013-05-16 17:35:00
12:55 PM,71.6,67.1,86,29.82,10.0,South,16.1,19.6,N/A,,Overcast,170,2013-05-16 17:55:00
1:15 PM,73.8,68.2,83,29.80,10.0,South,16.1,-,N/A,,Mostly Cloudy,170,2013-05-16 18:15:00
1:35 PM,75.4,68.9,80,29.80,10.0,South,18.4,24.2,N/A,,Mostly Cloudy,170,2013-05-16 18:35:00
1:55 PM,75.6,68.2,78,29.80,10.0,South,20.7,29.9,N/A,,Overcast,170,2013-05-16 18:55:00
2:15 PM,76.1,68.4,77,29.79,10.0,South,19.6,26.5,N/A,,Overcast,180,2013-05-16 19:15:00
2:35 PM,77.2,68.7,75,29.79,10.0,South,17.3,24.2,N/A,,Overcast,180,2013-05-16 19:35:00
2:55 PM,76.6,68.4,75,29.79,10.0,South,17.3,23.0,N/A,,Overcast,180,2013-05-16 19:55:00
3:15 PM,77.0,68.9,76,29.79,10.0,South,19.6,23.0,N/A,,Overcast,170,2013-05-16 20:15:00
3:35 PM,76.5,68.9,77,29.79,10.0,South,15.0,21.9,N/A,,Overcast,180,2013-05-16 20:35:00
3:55 PM,77.0,68.9,76,29.79,10.0,South,15.0,21.9,N/A,,Overcast,180,2013-05-16 20:55:00
4:15 PM,78.4,69.6,74,29.78,10.0,SSW,13.8,18.4,N/A,,Overcast,200,2013-05-16 21:15:00
4:35 PM,79.9,70.0,72,29.77,10.0,SSE,13.8,20.7,N/A,,Mostly Cloudy,160,2013-05-16 21:35:00
4:55 PM,79.0,69.8,73,29.77,10.0,South,13.8,20.7,N/A,,Mostly Cloudy,190,2013-05-16 21:55:00
5:15 PM,79.5,69.8,72,29.77,10.0,South,13.8,-,N/A,,Scattered Clouds,170,2013-05-16 22:15:00
5:35 PM,79.7,69.6,71,29.76,10.0,SSE,15.0,19.6,N/A,,Scattered Clouds,160,2013-05-16 22:35:00
5:55 PM,80.6,70.7,72,29.75,10.0,SSE,12.7,18.4,N/A,,Scattered Clouds,160,2013-05-16 22:55:00
6:15 PM,79.7,69.8,72,29.75,10.0,South,11.5,18.4,N/A,,Scattered Clouds,170,2013-05-16 23:15:00
6:55 PM,79.3,69.4,72,29.75,10.0,SSE,9.2,-,N/A,,Mostly Cloudy,160,2013-05-16 23:55:00
7:15 PM,78.1,70.3,77,29.75,10.0,SSE,6.9,-,N/A,,Scattered Clouds,160,2013-05-17 00:15:00
7:35 PM,77.4,70.2,78,29.75,10.0,SSE,6.9,-,N/A,,Mostly Cloudy,160,2013-05-17 00:35:00
7:55 PM,76.3,70.2,81,29.76,10.0,SSE,4.6,-,N/A,,Overcast,150,2013-05-17 00:55:00
8:15 PM,75.4,70.2,84,29.76,10.0,SE,3.5,-,N/A,,Overcast,140,2013-05-17 01:15:00
8:35 PM,74.8,70.3,86,29.76,10.0,SE,3.5,-,N/A,,Overcast,130,2013-05-17 01:35:00
8:55 PM,74.7,70.5,87,29.77,10.0,SE,5.8,-,N/A,,Overcast,140,2013-05-17 01:55:00
9:15 PM,73.8,70.0,88,29.77,10.0,ESE,5.8,-,N/A,,Mostly Cloudy,120,2013-05-17 02:15:00
9:35 PM,72.9,69.8,90,29.78,10.0,ESE,4.6,-,N/A,,Scattered Clouds,110,2013-05-17 02:35:00
9:55 PM,72.3,69.8,92,29.79,10.0,East,6.9,-,N/A,,Clear,100,2013-05-17 02:55:00
10:15 PM,71.4,69.4,93,29.80,7.0,East,4.6,-,N/A,,Scattered Clouds,80,2013-05-17 03:15:00
10:35 PM,71.6,69.6,93,29.80,7.0,East,4.6,-,N/A,,Mostly Cloudy,90,2013-05-17 03:35:00
10:55 PM,71.6,69.8,94,29.81,7.0,East,4.6,-,N/A,,Overcast,80,2013-05-17 03:55:00
11:15 PM,72.0,70.0,93,29.81,7.0,East,5.8,-,N/A,,Overcast,80,2013-05-17 04:15:00
11:55 PM,71.8,69.8,93,29.81,7.0,East,5.8,-,N/A,,Overcast,80,2013-05-17 04:55:00